Time,TemperatureF,DewpointF,PressureIn,WindDirection,WindDirectionDegrees,WindSpeedMPH,WindSpeedGustMPH,Humidity,HourlyPrecipIn,Conditions,Clouds,dailyrainin,SolarRadiationWatts/m^2,SoftwareType,DateUTC
2013-03-06 00:00:00,41.9,10.4,30.36,WNW,288,0.0,0.0,27,0.00,,---,0.00,0.00,VWS V14.00,2013-03-06 06:00:00,
2013-03-06 00:05:00,41.7,10.2,30.36,WNW,288,0.0,0.0,27,0.00,,---,0.00,0.00,VWS V14.00,2013-03-06 06:05:00,
2013-03-06 00:10:00,41.5,10.0,30.36,WNW,288,0.0,0.0,27,0.00,,---,0.00,0.00,VWS V14.00,2013-03-06 06:10:00,
2013-03-06 00:15:00,41.3,10.7,30.36,WNW,288,0.0,0.0,28,0.00,,---,0.00,0.00,VWS V14.00,2013-03-06 06:15:00,
2013-03-06 00:20:00,41.0,11.2,30.36,WNW,288,0.0,0.0,29,0.00,,---,0.00,0.00,VWS V14.00,2013-03-06 06:20:00,
2013-03-06 00:25:00,40.7,10.1,30.36,WNW,288,0.0,0.0,28,0.00,,---,0.00,0.00,VWS V14.00,2013-03-06 06:25:00,
2013-03-06 00:30:00,40.5,10.0,30.36,WNW,288,0.0,0.0,28,0.00,,---,0.00,0.00,VWS V14.00,2013-03-06 06:30:00,
2013-03-06 00:35:00,40.3,10.6,30.36,WNW,288,0.0,0.0,29,0.00,,---,0.00,0.00,VWS V14.00,2013-03-06 06:35:00,
2013-03-06 00:40:00,40.2,10.5,30.37,WNW,288,0.0,0.0,29,0.00,,---,0.00,0.00,VWS V14.00,2013-03-06 06:40:00,
2013-03-06 00:45:00,40.0,10.3,30.37,WNW,288,0.0,0.0,29,0.00,,---,0.00,0.00,VWS V14.00,2013-03-06 06:45:00,
2013-03-06 00:50:00,39.9,11.0,30.37,WNW,288,0.0,0.0,30,0.00,,---,0.00,0.00,VWS V14.00,2013-03-06 06:50:00,
2013-03-06 00:55:00,39.8,10.1,30.37,WNW,288,0.0,0.0,29,0.00,,---,0.00,0.00,VWS V14.00,2013-03-06 06:55:00,
2013-03-06 01:00:00,39.7,10.8,30.37,WNW,288,0.0,0.0,30,0.00,,---,0.00,0.00,VWS V14.00,2013-03-06 07:00:00,
2013-03-06 01:05:00,39.6,10.7,30.37,WNW,288,0.0,0.0,30,0.00,,---,0.00,0.00,VWS V14.00,2013-03-06 07:05:00,
2013-03-06 01:10:00,39.5,10.6,30.38,WNW,288,0.0,0.0,30,0.00,,---,0.00,0.00,VWS V14.00,2013-03-06 07:10:00,
2013-03-06 01:15:00,39.3,10.5,30.38,WNW,288,0.0,0.0,30,0.00,,---,0.00,0.00,VWS V14.00,2013-03-06 07:15:00,
2013-03-06 01:20:00,39.2,10.4,30.38,WNW,288,0.0,0.0,30,0.00,,---,0.00,0.00,VWS V14.00,2013-03-06 07:20:00,
2013-03-06 01:25:00,39.2,11.1,30.39,WNW,288,0.0,0.0,31,0.00,,---,0.00,0.00,VWS V14.00,2013-03-06 07:25:00,
2013-03-06 01:30:00,39.0,11.7,30.39,WNW,288,0.0,2.0,32,0.00,,---,0.00,0.00,VWS V14.00,2013-03-06 07:30:00,
2013-03-06 01:35:00,38.7,11.4,30.39,WNW,288,0.0,0.0,32,0.00,,---,0.00,0.00,VWS V14.00,2013-03-06 07:35:00,
2013-03-06 01:40:00,38.5,11.2,30.39,WNW,288,0.0,0.0,32,0.00,,---,0.00,0.00,VWS V14.00,2013-03-06 07:40:00,
2013-03-06 01:45:00,38.4,11.1,30.39,WNW,288,0.0,0.0,32,0.00,,---,0.00,0.00,VWS V14.00,2013-03-06 07:45:00,
2013-03-06 01:50:00,38.4,11.1,30.39,WNW,288,0.0,0.0,32,0.00,,---,0.00,0.00,VWS V14.00,2013-03-06 07:50:00,
2013-03-06 01:55:00,38.4,11.1,30.39,WNW,288,0.0,0.0,32,0.00,,---,0.00,0.00,VWS V14.00,2013-03-06 07:55:00,
2013-03-06 02:00:00,38.5,11.2,30.39,WNW,288,0.0,0.0,32,0.00,,---,0.00,0.00,VWS V14.00,2013-03-06 08:00:00,
2013-03-06 02:05:00,38.5,11.2,30.39,WNW,288,0.0,0.0,32,0.00,,---,0.00,0.00,VWS V14.00,2013-03-06 08:05:00,
2013-03-06 02:10:00,38.5,11.9,30.39,WNW,288,0.0,0.0,33,0.00,,---,0.00,0.00,VWS V14.00,2013-03-06 08:10:00,
2013-03-06 02:15:00,38.4,11.8,30.40,WNW,288,0.0,0.0,33,0.00,,---,0.00,0.00,VWS V14.00,2013-03-06 08:15:00,
2013-03-06 02:20:00,38.4,11.8,30.39,WNW,288,0.0,0.0,33,0.00,,---,0.00,0.00,VWS V14.00,2013-03-06 08:20:00,
2013-03-06 02:25:00,38.3,11.7,30.39,WNW,288,0.0,0.0,33,0.00,,---,0.00,0.00,VWS V14.00,2013-03-06 08:25:00,
2013-03-06 02:30:00,38.2,11.6,30.39,WNW,288,0.0,0.0,33,0.00,,---,0.00,0.00,VWS V14.00,2013-03-06 08:30:00,
2013-03-06 02:35:00,38.2,12.3,30.39,WNW,288,0.0,0.0,34,0.00,,---,0.00,0.00,VWS V14.00,2013-03-06 08:35:00,
2013-03-06 02:40:00,38.0,12.1,30.39,WNW,288,0.0,0.0,34,0.00,,---,0.00,0.00,VWS V14.00,2013-03-06 08:40:00,
2013-03-06 02:45:00,37.9,12.7,30.39,WNW,288,0.0,0.0,35,0.00,,---,0.00,0.00,VWS V14.00,2013-03-06 08:45:00,
2013-03-06 02:50:00,37.8,12.6,30.39,WNW,288,0.0,0.0,35,0.00,,---,0.00,0.00,VWS V14.00,2013-03-06 08:50:00,
2013-03-06 02:55:00,37.7,13.2,30.39,WNW,288,0.0,0.0,36,0.00,,---,0.00,0.00,VWS V14.00,2013-03-06 08:55:00,
2013-03-06 03:00:00,37.6,13.1,30.39,WNW,288,0.0,0.0,36,0.00,,---,0.00,0.00,VWS V14.00,2013-03-06 09:00:00,
2013-03-06 03:05:00,37.5,13.0,30.39,WNW,288,0.0,0.0,36,0.00,,---,0.00,0.00,VWS V14.00,2013-03-06 09:05:00,
2013-03-06 03:10:00,37.5,13.0,30.39,WNW,288,0.0,0.0,36,0.00,,---,0.00,0.00,VWS V14.00,2013-03-06 09:10:00,
2013-03-06 03:15:00,37.4,12.9,30.39,WNW,288,0.0,0.0,36,0.00,,---,0.00,0.00,VWS V14.00,2013-03-06 09:15:00,
2013-03-06 03:20:00,37.1,12.6,30.39,WNW,288,0.0,0.0,36,0.00,,---,0.00,0.00,VWS V14.00,2013-03-06 09:20:00,
2013-03-06 03:25:00,37.0,12.5,30.39,WNW,288,0.0,0.0,36,0.00,,---,0.00,0.00,VWS V14.00,2013-03-06 09:25:00,
2013-03-06 03:30:00,36.9,12.4,30.39,WNW,288,0.0,0.0,36,0.00,,---,0.00,0.00,VWS V14.00,2013-03-06 09:30:00,
2013-03-06 03:35:00,36.9,12.4,30.39,WNW,288,0.0,0.0,36,0.00,,---,0.00,0.00,VWS V14.00,2013-03-06 09:35:00,
2013-03-06 03:40:00,36.9,13.1,30.39,WNW,288,0.0,0.0,37,0.00,,---,0.00,0.00,VWS V14.00,2013-03-06 09:40:00,
2013-03-06 03:45:00,36.9,13.1,30.40,WNW,288,0.0,0.0,37,0.00,,---,0.00,0.00,VWS V14.00,2013-03-06 09:45:00,
2013-03-06 03:50:00,36.8,13.6,30.40,WNW,288,2.0,2.0,38,0.00,,---,0.00,0.00,VWS V14.00,2013-03-06 09:50:00,
2013-03-06 03:55:00,36.7,13.5,30.39,WNW,288,0.0,0.0,38,0.00,,---,0.00,0.00,VWS V14.00,2013-03-06 09:55:00,
2013-03-06 04:00:00,36.8,14.2,30.39,WNW,288,1.0,2.0,39,0.00,,---,0.00,0.00,VWS V14.00,2013-03-06 10:00:00,
2013-03-06 04:05:00,36.8,14.2,30.40,WNW,288,0.0,1.0,39,0.00,,---,0.00,0.00,VWS V14.00,2013-03-06 10:05:00,
2013-03-06 04:10:00,36.9,13.7,30.40,WNW,288,0.0,1.0,38,0.00,,---,0.00,0.00,VWS V14.00,2013-03-06 10:10:00,
2013-03-06 04:15:00,36.9,13.7,30.39,WNW,288,0.0,0.0,38,0.00,,---,0.00,0.00,VWS V14.00,2013-03-06 10:15:00,
2013-03-06 04:20:00,36.8,13.6,30.40,WNW,288,0.0,0.0,38,0.00,,---,0.00,0.00,VWS V14.00,2013-03-06 10:20:00,
2013-03-06 04:25:00,36.8,13.6,30.40,WNW,288,0.0,0.0,38,0.00,,---,0.00,0.00,VWS V14.00,2013-03-06 10:25:00,
2013-03-06 04:30:00,36.8,13.6,30.41,WNW,288,0.0,0.0,38,0.00,,---,0.00,0.00,VWS V14.00,2013-03-06 10:30:00,
2013-03-06 04:35:00,36.7,14.1,30.41,WNW,288,0.0,0.0,39,0.00,,---,0.00,0.00,VWS V14.00,2013-03-06 10:35:00,
2013-03-06 04:40:00,36.6,13.4,30.41,WNW,288,0.0,0.0,38,0.00,,---,0.00,0.00,VWS V14.00,2013-03-06 10:40:00,
2013-03-06 04:45:00,36.6,14.0,30.41,WNW,288,0.0,0.0,39,0.00,,---,0.00,0.00,VWS V14.00,2013-03-06 10:45:00,
2013-03-06 04:50:00,36.6,14.0,30.41,WNW,288,0.0,0.0,39,0.00,,---,0.00,0.00,VWS V14.00,2013-03-06 10:50:00,
2013-03-06 04:55:00,36.6,14.0,30.41,WNW,288,0.0,0.0,39,0.00,,---,0.00,0.00,VWS V14.00,2013-03-06 10:55:00,
2013-03-06 05:00:00,36.6,14.0,30.42,WNW,288,0.0,0.0,39,0.00,,---,0.00,0.00,VWS V14.00,2013-03-06 11:00:00,
2013-03-06 05:05:00,36.5,13.9,30.42,WNW,288,0.0,0.0,39,0.00,,---,0.00,0.00,VWS V14.00,2013-03-06 11:05:00,
2013-03-06 05:10:00,36.4,13.8,30.42,WNW,288,0.0,0.0,39,0.00,,---,0.00,0.00,VWS V14.00,2013-03-06 11:10:00,
2013-03-06 05:15:00,36.2,13.6,30.42,WNW,288,0.0,0.0,39,0.00,,---,0.00,0.00,VWS V14.00,2013-03-06 11:15:00,
2013-03-06 05:20:00,36.1,14.1,30.42,WNW,288,0.0,0.0,40,0.00,,---,0.00,0.00,VWS V14.00,2013-03-06 11:20:00,
2013-03-06 05:25:00,36.0,14.0,30.42,WNW,288,0.0,0.0,40,0.00,,---,0.00,0.00,VWS V14.00,2013-03-06 11:25:00,
2013-03-06 05:30:00,36.0,14.0,30.42,WNW,288,0.0,0.0,40,0.00,,---,0.00,0.00,VWS V14.00,2013-03-06 11:30:00,
2013-03-06 05:35:00,36.0,14.0,30.42,WNW,288,0.0,0.0,40,0.00,,---,0.00,0.00,VWS V14.00,2013-03-06 11:35:00,
2013-03-06 05:40:00,35.9,13.9,30.43,WNW,288,0.0,0.0,40,0.00,,---,0.00,0.00,VWS V14.00,2013-03-06 11:40:00,
2013-03-06 05:45:00,35.9,13.9,30.43,WNW,288,0.0,0.0,40,0.00,,---,0.00,0.00,VWS V14.00,2013-03-06 11:45:00,
2013-03-06 05:50:00,35.8,14.4,30.43,WNW,288,0.0,0.0,41,0.00,,---,0.00,0.00,VWS V14.00,2013-03-06 11:50:00,
2013-03-06 05:55:00,35.6,14.8,30.43,WNW,288,0.0,0.0,42,0.00,,---,0.00,0.00,VWS V14.00,2013-03-06 11:55:00,
2013-03-06 06:00:00,35.3,14.0,30.44,WNW,288,0.0,0.0,41,0.00,,---,0.00,0.00,VWS V14.00,2013-03-06 12:00:00,
2013-03-06 06:05:00,35.0,13.7,30.43,WNW,288,0.0,0.0,41,0.00,,---,0.00,0.00,VWS V14.00,2013-03-06 12:05:00,
2013-03-06 06:10:00,34.9,13.6,30.44,WNW,288,0.0,0.0,41,0.00,,---,0.00,0.00,VWS V14.00,2013-03-06 12:10:00,
2013-03-06 06:15:00,34.8,13.5,30.44,WNW,288,0.0,0.0,41,0.00,,---,0.00,0.00,VWS V14.00,2013-03-06 12:15:00,
2013-03-06 06:20:00,34.8,14.1,30.44,WNW,288,0.0,0.0,42,0.00,,---,0.00,0.00,VWS V14.00,2013-03-06 12:20:00,
2013-03-06 06:25:00,34.8,14.1,30.44,WNW,288,0.0,0.0,42,0.00,,---,0.00,0.00,VWS V14.00,2013-03-06 12:25:00,
2013-03-06 06:30:00,34.8,14.1,30.44,WNW,288,0.0,0.0,42,0.00,,---,0.00,0.00,VWS V14.00,2013-03-06 12:30:00,
2013-03-06 06:35:00,34.8,14.1,30.44,WNW,288,0.0,0.0,42,0.00,,---,0.00,0.00,VWS V14.00,2013-03-06 12:35:00,
2013-03-06 06:40:00,34.7,14.0,30.45,WNW,288,0.0,0.0,42,0.00,,---,0.00,0.00,VWS V14.00,2013-03-06 12:40:00,
2013-03-06 06:45:00,34.7,14.5,30.45,WNW,288,0.0,0.0,43,0.00,,---,0.00,0.00,VWS V14.00,2013-03-06 12:45:00,
2013-03-06 06:50:00,34.7,14.5,30.46,WNW,288,0.0,0.0,43,0.00,,---,0.00,0.00,VWS V14.00,2013-03-06 12:50:00,
2013-03-06 06:55:00,34.7,14.5,30.46,WNW,288,0.0,0.0,43,0.00,,---,0.00,7.00,VWS V14.00,2013-03-06 12:55:00,
2013-03-06 07:00:00,34.6,14.4,30.47,WNW,288,0.0,0.0,43,0.00,,---,0.00,11.00,VWS V14.00,2013-03-06 13:00:00,
2013-03-06 07:05:00,34.6,14.4,30.47,WNW,288,0.0,0.0,43,0.00,,---,0.00,18.00,VWS V14.00,2013-03-06 13:05:00,
2013-03-06 07:10:00,34.6,14.4,30.48,WNW,288,0.0,0.0,43,0.00,,---,0.00,25.00,VWS V14.00,2013-03-06 13:10:00,
2013-03-06 07:15:00,34.5,14.3,30.48,WNW,288,0.0,0.0,43,0.00,,---,0.00,32.00,VWS V14.00,2013-03-06 13:15:00,
2013-03-06 07:20:00,34.5,14.3,30.48,WNW,288,0.0,0.0,43,0.00,,---,0.00,42.00,VWS V14.00,2013-03-06 13:20:00,
2013-03-06 07:25:00,34.5,14.9,30.48,WNW,288,0.0,0.0,44,0.00,,---,0.00,51.00,VWS V14.00,2013-03-06 13:25:00,
2013-03-06 07:30:00,34.6,14.4,30.47,WNW,288,0.0,1.0,43,0.00,,---,0.00,60.00,VWS V14.00,2013-03-06 13:30:00,
2013-03-06 07:35:00,34.7,15.6,30.48,WNW,288,0.0,0.0,45,0.00,,---,0.00,67.00,VWS V14.00,2013-03-06 13:35:00,
2013-03-06 07:40:00,34.7,15.6,30.48,WNW,288,0.0,0.0,45,0.00,,---,0.00,70.00,VWS V14.00,2013-03-06 13:40:00,
2013-03-06 07:45:00,34.9,16.2,30.48,WNW,288,0.0,0.0,46,0.00,,---,0.00,70.00,VWS V14.00,2013-03-06 13:45:00,
2013-03-06 07:50:00,35.0,16.8,30.47,WNW,288,2.0,4.0,47,0.00,,---,0.00,81.00,VWS V14.00,2013-03-06 13:50:00,
2013-03-06 07:55:00,35.8,17.1,30.47,West,279,4.0,8.0,46,0.00,,---,0.00,91.00,VWS V14.00,2013-03-06 13:55:00,
2013-03-06 08:00:00,36.8,17.5,30.49,West,277,1.0,8.0,45,0.00,,---,0.00,95.00,VWS V14.00,2013-03-06 14:00:00,
2013-03-06 08:05:00,37.5,17.6,30.48,West,277,5.0,6.0,44,0.00,,---,0.00,104.00,VWS V14.00,2013-03-06 14:05:00,
2013-03-06 08:10:00,38.4,17.9,30.49,ESE,117,7.0,8.0,43,0.00,,---,0.00,116.00,VWS V14.00,2013-03-06 14:10:00,
2013-03-06 08:15:00,39.0,17.3,30.49,ESE,117,5.0,7.0,41,0.00,,---,0.00,128.00,VWS V14.00,2013-03-06 14:15:00,
2013-03-06 08:20:00,39.4,18.2,30.49,ESE,117,2.0,7.0,42,0.00,,---,0.00,144.00,VWS V14.00,2013-03-06 14:20:00,
2013-03-06 08:25:00,39.7,17.4,30.50,ESE,116,2.0,8.0,40,0.00,,---,0.00,163.00,VWS V14.00,2013-03-06 14:25:00,
2013-03-06 08:30:00,40.0,17.6,30.50,ESE,116,2.0,9.0,40,0.00,,---,0.00,183.00,VWS V14.00,2013-03-06 14:30:00,
2013-03-06 08:35:00,40.3,17.9,30.51,ESE,116,6.0,11.0,40,0.00,,---,0.00,211.00,VWS V14.00,2013-03-06 14:35:00,
2013-03-06 08:40:00,40.6,17.6,30.50,ESE,115,5.0,11.0,39,0.00,,---,0.00,221.00,VWS V14.00,2013-03-06 14:40:00,
2013-03-06 08:45:00,40.9,17.9,30.50,ESE,117,7.0,8.0,39,0.00,,---,0.00,241.00,VWS V14.00,2013-03-06 14:45:00,
2013-03-06 08:50:00,41.3,17.6,30.49,ESE,117,2.0,11.0,38,0.00,,---,0.00,281.00,VWS V14.00,2013-03-06 14:50:00,
2013-03-06 08:55:00,41.8,18.1,30.49,ESE,109,4.0,13.0,38,0.00,,---,0.00,332.00,VWS V14.00,2013-03-06 14:55:00,
2013-03-06 09:00:00,42.4,18.6,30.49,ESE,106,0.0,13.0,38,0.00,,---,0.00,338.00,VWS V14.00,2013-03-06 15:00:00,
2013-03-06 09:05:00,43.0,17.9,30.49,ESE,111,5.0,9.0,36,0.00,,---,0.00,313.00,VWS V14.00,2013-03-06 15:05:00,
2013-03-06 09:10:00,43.3,18.2,30.49,ESE,112,5.0,11.0,36,0.00,,---,0.00,309.00,VWS V14.00,2013-03-06 15:10:00,
2013-03-06 09:15:00,43.6,17.8,30.50,ESE,113,9.0,9.0,35,0.00,,---,0.00,327.00,VWS V14.00,2013-03-06 15:15:00,
2013-03-06 09:20:00,44.0,17.5,30.50,ESE,109,4.0,11.0,34,0.00,,---,0.00,336.00,VWS V14.00,2013-03-06 15:20:00,
2013-03-06 09:25:00,44.2,18.3,30.50,ESE,105,2.0,6.0,35,0.00,,---,0.00,359.00,VWS V14.00,2013-03-06 15:25:00,
2013-03-06 09:30:00,44.5,17.9,30.50,ESE,102,4.0,12.0,34,0.00,,---,0.00,359.00,VWS V14.00,2013-03-06 15:30:00,
2013-03-06 09:35:00,44.9,17.6,30.51,ESE,118,7.0,13.0,33,0.00,,---,0.00,343.00,VWS V14.00,2013-03-06 15:35:00,
2013-03-06 09:40:00,45.1,17.7,30.50,ESE,119,7.0,13.0,33,0.00,,---,0.00,376.00,VWS V14.00,2013-03-06 15:40:00,
2013-03-06 09:45:00,45.4,17.3,30.50,ESE,117,8.0,9.0,32,0.00,,---,0.00,439.00,VWS V14.00,2013-03-06 15:45:00,
2013-03-06 09:50:00,45.8,16.1,30.50,ESE,110,6.0,11.0,30,0.00,,---,0.00,455.00,VWS V14.00,2013-03-06 15:50:00,
2013-03-06 09:55:00,46.2,15.7,30.50,ESE,106,6.0,11.0,29,0.00,,---,0.00,448.00,VWS V14.00,2013-03-06 15:55:00,
2013-03-06 10:00:00,46.3,15.0,30.50,ESE,107,7.0,11.0,28,0.00,,---,0.00,524.00,VWS V14.00,2013-03-06 16:00:00,
2013-03-06 10:05:00,46.7,15.3,30.50,ESE,115,1.0,13.0,28,0.00,,---,0.00,564.00,VWS V14.00,2013-03-06 16:05:00,
2013-03-06 10:10:00,47.2,14.1,30.50,ESE,102,8.0,13.0,26,0.00,,---,0.00,577.00,VWS V14.00,2013-03-06 16:10:00,
2013-03-06 10:15:00,47.4,13.4,30.50,ESE,109,9.0,15.0,25,0.00,,---,0.00,577.00,VWS V14.00,2013-03-06 16:15:00,
2013-03-06 10:20:00,47.8,14.6,30.50,ESE,110,9.0,15.0,26,0.00,,---,0.00,578.00,VWS V14.00,2013-03-06 16:20:00,
2013-03-06 10:25:00,48.3,15.9,30.50,East,95,9.0,12.0,27,0.00,,---,0.00,617.00,VWS V14.00,2013-03-06 16:25:00,
2013-03-06 10:30:00,48.7,14.5,30.49,ESE,111,6.0,14.0,25,0.00,,---,0.00,689.00,VWS V14.00,2013-03-06 16:30:00,
2013-03-06 10:35:00,49.2,14.9,30.49,ESE,109,6.0,9.0,25,0.00,,---,0.00,715.00,VWS V14.00,2013-03-06 16:35:00,
2013-03-06 10:40:00,49.9,14.6,30.50,ESE,117,4.0,15.0,24,0.00,,---,0.00,675.00,VWS V14.00,2013-03-06 16:40:00,
2013-03-06 10:45:00,50.2,14.8,30.50,ESE,110,6.0,12.0,24,0.00,,---,0.00,686.00,VWS V14.00,2013-03-06 16:45:00,
2013-03-06 10:50:00,50.3,14.9,30.50,ESE,121,1.0,13.0,24,0.00,,---,0.00,691.00,VWS V14.00,2013-03-06 16:50:00,
2013-03-06 10:55:00,50.7,14.3,30.50,ESE,107,4.0,13.0,23,0.00,,---,0.00,710.00,VWS V14.00,2013-03-06 16:55:00,
2013-03-06 11:00:00,51.1,14.6,30.49,ESE,103,6.0,13.0,23,0.00,,---,0.00,752.00,VWS V14.00,2013-03-06 17:00:00,
2013-03-06 11:05:00,51.4,15.8,30.49,ESE,103,5.0,8.0,24,0.00,,---,0.00,773.00,VWS V14.00,2013-03-06 17:05:00,
2013-03-06 11:10:00,51.4,14.9,30.48,ESE,112,2.0,14.0,23,0.00,,---,0.00,784.00,VWS V14.00,2013-03-06 17:10:00,
2013-03-06 11:15:00,51.8,15.2,30.48,ESE,112,4.0,8.0,23,0.00,,---,0.00,819.00,VWS V14.00,2013-03-06 17:15:00,
2013-03-06 11:20:00,52.6,14.9,30.48,ESE,111,7.0,11.0,22,0.00,,---,0.00,744.00,VWS V14.00,2013-03-06 17:20:00,
2013-03-06 11:25:00,52.6,15.9,30.47,ESE,121,7.0,15.0,23,0.00,,---,0.00,659.00,VWS V14.00,2013-03-06 17:25:00,
2013-03-06 11:30:00,53.0,16.2,30.47,ESE,121,5.0,15.0,23,0.00,,---,0.00,782.00,VWS V14.00,2013-03-06 17:30:00,
2013-03-06 11:35:00,53.0,16.2,30.47,ESE,120,5.0,12.0,23,0.00,,---,0.00,838.00,VWS V14.00,2013-03-06 17:35:00,
2013-03-06 11:40:00,53.6,16.7,30.46,ESE,120,9.0,13.0,23,0.00,,---,0.00,793.00,VWS V14.00,2013-03-06 17:40:00,
2013-03-06 11:45:00,53.7,15.8,30.46,ESE,115,8.0,14.0,22,0.00,,---,0.00,835.00,VWS V14.00,2013-03-06 17:45:00,
2013-03-06 11:50:00,54.1,16.1,30.46,SE,128,5.0,15.0,22,0.00,,---,0.00,657.00,VWS V14.00,2013-03-06 17:50:00,
2013-03-06 11:55:00,54.4,14.2,30.46,SE,129,7.0,15.0,20,0.00,,---,0.00,520.00,VWS V14.00,2013-03-06 17:55:00,
2013-03-06 12:00:00,54.0,16.0,30.45,SE,128,5.0,15.0,22,0.00,,---,0.00,729.00,VWS V14.00,2013-03-06 18:00:00,
2013-03-06 12:05:00,53.9,14.9,30.45,ESE,115,8.0,13.0,21,0.00,,---,0.00,585.00,VWS V14.00,2013-03-06 18:05:00,
2013-03-06 12:10:00,54.5,15.4,30.45,ESE,117,8.0,13.0,21,0.00,,---,0.00,659.00,VWS V14.00,2013-03-06 18:10:00,
2013-03-06 12:15:00,54.7,16.6,30.45,ESE,118,4.0,9.0,22,0.00,,---,0.00,751.00,VWS V14.00,2013-03-06 18:15:00,
2013-03-06 12:20:00,55.0,15.8,30.43,ESE,105,6.0,11.0,21,0.00,,---,0.00,1102.00,VWS V14.00,2013-03-06 18:20:00,
2013-03-06 12:25:00,55.7,17.5,30.43,ESE,106,11.0,15.0,22,0.00,,---,0.00,884.00,VWS V14.00,2013-03-06 18:25:00,
2013-03-06 12:30:00,56.3,15.8,30.43,ESE,106,0.0,15.0,20,0.00,,---,0.00,795.00,VWS V14.00,2013-03-06 18:30:00,
2013-03-06 12:35:00,56.9,17.4,30.42,ESE,107,5.0,9.0,21,0.00,,---,0.00,805.00,VWS V14.00,2013-03-06 18:35:00,
2013-03-06 12:40:00,57.7,14.5,30.41,SE,131,7.0,13.0,18,0.00,,---,0.00,773.00,VWS V14.00,2013-03-06 18:40:00,
2013-03-06 12:45:00,58.3,17.4,30.40,SE,132,9.0,12.0,20,0.00,,---,0.00,768.00,VWS V14.00,2013-03-06 18:45:00,
2013-03-06 12:50:00,58.4,17.5,30.39,ESE,116,6.0,12.0,20,0.00,,---,0.00,768.00,VWS V14.00,2013-03-06 18:50:00,
2013-03-06 12:55:00,59.1,18.1,30.39,ESE,123,7.0,12.0,20,0.00,,---,0.00,976.00,VWS V14.00,2013-03-06 18:55:00,
2013-03-06 13:00:00,58.8,15.4,30.39,SE,131,8.0,14.0,18,0.00,,---,0.00,526.00,VWS V14.00,2013-03-06 19:00:00,
2013-03-06 13:05:00,58.1,16.1,30.38,ESE,118,4.0,11.0,19,0.00,,---,0.00,564.00,VWS V14.00,2013-03-06 19:05:00,
2013-03-06 13:10:00,58.2,16.2,30.38,SE,124,11.0,14.0,19,0.00,,---,0.00,596.00,VWS V14.00,2013-03-06 19:10:00,
2013-03-06 13:15:00,58.5,15.2,30.37,ESE,116,8.0,12.0,18,0.00,,---,0.00,485.00,VWS V14.00,2013-03-06 19:15:00,
2013-03-06 13:20:00,59.0,16.8,30.37,ESE,102,7.0,12.0,19,0.00,,---,0.00,1192.00,VWS V14.00,2013-03-06 19:20:00,
2013-03-06 13:25:00,59.9,16.3,30.36,ESE,107,0.0,11.0,18,0.00,,---,0.00,1172.00,VWS V14.00,2013-03-06 19:25:00,
2013-03-06 13:30:00,60.7,17.0,30.35,ESE,113,5.0,14.0,18,0.00,,---,0.00,995.00,VWS V14.00,2013-03-06 19:30:00,
2013-03-06 13:35:00,60.5,15.5,30.35,ESE,116,12.0,13.0,17,0.00,,---,0.00,585.00,VWS V14.00,2013-03-06 19:35:00,
2013-03-06 13:40:00,60.0,16.4,30.34,SE,124,7.0,13.0,18,0.00,,---,0.00,457.00,VWS V14.00,2013-03-06 19:40:00,
2013-03-06 13:45:00,59.9,16.3,30.33,ESE,115,8.0,12.0,18,0.00,,---,0.00,615.00,VWS V14.00,2013-03-06 19:45:00,
2013-03-06 13:50:00,60.3,16.6,30.32,ESE,117,7.0,16.0,18,0.00,,---,0.00,476.00,VWS V14.00,2013-03-06 19:50:00,
2013-03-06 13:55:00,60.7,17.0,30.33,ESE,109,7.0,9.0,18,0.00,,---,0.00,798.00,VWS V14.00,2013-03-06 19:55:00,
2013-03-06 14:00:00,61.3,16.1,30.32,SE,128,6.0,14.0,17,0.00,,---,0.00,905.00,VWS V14.00,2013-03-06 20:00:00,
2013-03-06 14:05:00,61.8,16.5,30.31,SE,134,7.0,14.0,17,0.00,,---,0.00,925.00,VWS V14.00,2013-03-06 20:05:00,
2013-03-06 14:10:00,61.3,16.1,30.31,SE,128,7.0,14.0,17,0.00,,---,0.00,383.00,VWS V14.00,2013-03-06 20:10:00,
2013-03-06 14:15:00,60.9,15.8,30.31,SE,134,5.0,15.0,17,0.00,,---,0.00,503.00,VWS V14.00,2013-03-06 20:15:00,
2013-03-06 14:20:00,60.6,16.9,30.31,SE,134,5.0,15.0,18,0.00,,---,0.00,541.00,VWS V14.00,2013-03-06 20:20:00,
2013-03-06 14:25:00,61.1,17.3,30.31,SE,140,5.0,10.0,18,0.00,,---,0.00,642.00,VWS V14.00,2013-03-06 20:25:00,
2013-03-06 14:30:00,61.6,16.4,30.30,ESE,118,4.0,11.0,17,0.00,,---,0.00,443.00,VWS V14.00,2013-03-06 20:30:00,
2013-03-06 14:35:00,61.6,17.7,30.30,ESE,119,2.0,8.0,18,0.00,,---,0.00,603.00,VWS V14.00,2013-03-06 20:35:00,
2013-03-06 14:40:00,62.1,16.8,30.30,ESE,114,5.0,9.0,17,0.00,,---,0.00,624.00,VWS V14.00,2013-03-06 20:40:00,
2013-03-06 14:45:00,62.4,15.6,30.30,ESE,113,7.0,7.0,16,0.00,,---,0.00,401.00,VWS V14.00,2013-03-06 20:45:00,
2013-03-06 14:50:00,62.4,15.6,30.30,ESE,120,6.0,12.0,16,0.00,,---,0.00,322.00,VWS V14.00,2013-03-06 20:50:00,
2013-03-06 14:55:00,62.3,14.1,30.30,ESE,119,5.0,8.0,15,0.00,,---,0.00,346.00,VWS V14.00,2013-03-06 20:55:00,
2013-03-06 15:00:00,62.2,12.4,30.30,ESE,121,9.0,13.0,14,0.00,,---,0.00,397.00,VWS V14.00,2013-03-06 21:00:00,
2013-03-06 15:05:00,62.2,12.4,30.28,SE,128,5.0,11.0,14,0.00,,---,0.00,334.00,VWS V14.00,2013-03-06 21:05:00,
2013-03-06 15:10:00,62.0,12.3,30.28,SE,124,2.0,13.0,14,0.00,,---,0.00,301.00,VWS V14.00,2013-03-06 21:10:00,
2013-03-06 15:15:00,61.9,12.2,30.28,SE,127,5.0,9.0,14,0.00,,---,0.00,287.00,VWS V14.00,2013-03-06 21:15:00,
2013-03-06 15:20:00,61.9,12.2,30.28,SE,124,7.0,12.0,14,0.00,,---,0.00,285.00,VWS V14.00,2013-03-06 21:20:00,
2013-03-06 15:25:00,61.7,12.1,30.28,ESE,123,4.0,7.0,14,0.00,,---,0.00,285.00,VWS V14.00,2013-03-06 21:25:00,
2013-03-06 15:30:00,61.7,10.4,30.28,SE,126,8.0,9.0,13,0.00,,---,0.00,271.00,VWS V14.00,2013-03-06 21:30:00,
2013-03-06 15:35:00,61.6,10.3,30.28,SE,125,2.0,8.0,13,0.00,,---,0.00,251.00,VWS V14.00,2013-03-06 21:35:00,
2013-03-06 15:40:00,61.5,10.2,30.28,SE,126,4.0,12.0,13,0.00,,---,0.00,246.00,VWS V14.00,2013-03-06 21:40:00,
2013-03-06 15:45:00,61.4,10.1,30.28,SE,127,2.0,8.0,13,0.00,,---,0.00,236.00,VWS V14.00,2013-03-06 21:45:00,
2013-03-06 15:50:00,61.3,10.1,30.27,SE,127,7.0,8.0,13,0.00,,---,0.00,230.00,VWS V14.00,2013-03-06 21:50:00,
2013-03-06 15:55:00,61.4,11.8,30.28,SE,127,4.0,7.0,14,0.00,,---,0.00,258.00,VWS V14.00,2013-03-06 21:55:00,
2013-03-06 16:00:00,61.4,11.8,30.28,SE,127,5.0,7.0,14,0.00,,---,0.00,360.00,VWS V14.00,2013-03-06 22:00:00,
2013-03-06 16:05:00,61.6,13.5,30.27,SE,128,5.0,13.0,15,0.00,,---,0.00,524.00,VWS V14.00,2013-03-06 22:05:00,
2013-03-06 16:10:00,62.2,14.0,30.27,SE,137,5.0,13.0,15,0.00,,---,0.00,527.00,VWS V14.00,2013-03-06 22:10:00,
2013-03-06 16:15:00,62.5,14.2,30.26,SE,137,6.0,10.0,15,0.00,,---,0.00,487.00,VWS V14.00,2013-03-06 22:15:00,
2013-03-06 16:20:00,63.0,14.6,30.25,SE,131,9.0,12.0,15,0.00,,---,0.00,464.00,VWS V14.00,2013-03-06 22:20:00,
2013-03-06 16:25:00,63.0,14.6,30.25,ESE,115,4.0,11.0,15,0.00,,---,0.00,330.00,VWS V14.00,2013-03-06 22:25:00,
2013-03-06 16:30:00,63.0,16.1,30.25,ESE,119,11.0,12.0,16,0.00,,---,0.00,406.00,VWS V14.00,2013-03-06 22:30:00,
2013-03-06 16:35:00,63.2,16.3,30.25,ESE,120,4.0,7.0,16,0.00,,---,0.00,388.00,VWS V14.00,2013-03-06 22:35:00,
2013-03-06 16:40:00,63.2,14.8,30.25,SE,139,8.0,13.0,15,0.00,,---,0.00,376.00,VWS V14.00,2013-03-06 22:40:00,
2013-03-06 16:45:00,62.9,14.6,30.25,SE,139,9.0,10.0,15,0.00,,---,0.00,378.00,VWS V14.00,2013-03-06 22:45:00,
2013-03-06 16:50:00,62.6,15.8,30.24,SE,143,6.0,11.0,16,0.00,,---,0.00,345.00,VWS V14.00,2013-03-06 22:50:00,
2013-03-06 16:55:00,62.6,15.8,30.25,SE,143,4.0,8.0,16,0.00,,---,0.00,420.00,VWS V14.00,2013-03-06 22:55:00,
2013-03-06 17:00:00,63.0,16.1,30.25,SE,136,7.0,11.0,16,0.00,,---,0.00,332.00,VWS V14.00,2013-03-06 23:00:00,
2013-03-06 17:05:00,63.2,16.3,30.25,SE,134,6.0,13.0,16,0.00,,---,0.00,214.00,VWS V14.00,2013-03-06 23:05:00,
2013-03-06 17:10:00,63.0,16.1,30.24,SE,128,7.0,13.0,16,0.00,,---,0.00,283.00,VWS V14.00,2013-03-06 23:10:00,
2013-03-06 17:15:00,62.9,16.0,30.24,SE,128,2.0,9.0,16,0.00,,---,0.00,195.00,VWS V14.00,2013-03-06 23:15:00,
2013-03-06 17:20:00,62.8,16.0,30.25,SE,129,1.0,9.0,16,0.00,,---,0.00,227.00,VWS V14.00,2013-03-06 23:20:00,
2013-03-06 17:25:00,62.7,15.9,30.24,SE,129,4.0,11.0,16,0.00,,---,0.00,155.00,VWS V14.00,2013-03-06 23:25:00,
2013-03-06 17:30:00,62.6,15.8,30.24,ESE,123,4.0,11.0,16,0.00,,---,0.00,146.00,VWS V14.00,2013-03-06 23:30:00,
2013-03-06 17:35:00,62.3,12.5,30.24,ESE,123,7.0,14.0,14,0.00,,---,0.00,142.00,VWS V14.00,2013-03-06 23:35:00,
2013-03-06 17:40:00,62.0,12.3,30.24,SE,124,7.0,14.0,14,0.00,,---,0.00,84.00,VWS V14.00,2013-03-06 23:40:00,
2013-03-06 17:45:00,61.7,12.1,30.24,SE,124,6.0,11.0,14,0.00,,---,0.00,93.00,VWS V14.00,2013-03-06 23:45:00,
2013-03-06 17:50:00,61.4,13.4,30.24,SE,124,7.0,12.0,15,0.00,,---,0.00,114.00,VWS V14.00,2013-03-06 23:50:00,
2013-03-06 17:55:00,61.3,13.3,30.24,SE,124,5.0,9.0,15,0.00,,---,0.00,98.00,VWS V14.00,2013-03-06 23:55:00,
2013-03-06 18:00:00,61.2,14.7,30.24,SE,125,5.0,12.0,16,0.00,,---,0.00,56.00,VWS V14.00,2013-03-07 00:00:00,
2013-03-06 18:05:00,60.9,14.4,30.24,SE,124,2.0,8.0,16,0.00,,---,0.00,49.00,VWS V14.00,2013-03-07 00:05:00,
2013-03-06 18:10:00,60.6,14.2,30.24,SE,125,7.0,12.0,16,0.00,,---,0.00,42.00,VWS V14.00,2013-03-07 00:10:00,
2013-03-06 18:15:00,60.2,13.9,30.24,SE,126,5.0,8.0,16,0.00,,---,0.00,32.00,VWS V14.00,2013-03-07 00:15:00,
2013-03-06 18:20:00,59.9,13.6,30.24,SE,125,5.0,8.0,16,0.00,,---,0.00,18.00,VWS V14.00,2013-03-07 00:20:00,
2013-03-06 18:25:00,59.6,13.4,30.24,SE,125,4.0,6.0,16,0.00,,---,0.00,12.00,VWS V14.00,2013-03-07 00:25:00,
2013-03-06 18:30:00,59.3,14.5,30.24,SE,126,1.0,6.0,17,0.00,,---,0.00,9.00,VWS V14.00,2013-03-07 00:30:00,
2013-03-06 18:35:00,59.0,14.3,30.24,SE,126,5.0,7.0,17,0.00,,---,0.00,5.00,VWS V14.00,2013-03-07 00:35:00,
2013-03-06 18:40:00,58.7,14.0,30.23,SE,124,2.0,7.0,17,0.00,,---,0.00,0.00,VWS V14.00,2013-03-07 00:40:00,
2013-03-06 18:45:00,58.4,13.8,30.23,SE,124,2.0,6.0,17,0.00,,---,0.00,0.00,VWS V14.00,2013-03-07 00:45:00,
2013-03-06 18:50:00,58.1,13.5,30.22,SE,124,5.0,7.0,17,0.00,,---,0.00,0.00,VWS V14.00,2013-03-07 00:50:00,
2013-03-06 18:55:00,57.7,13.2,30.23,SE,124,4.0,7.0,17,0.00,,---,0.00,0.00,VWS V14.00,2013-03-07 00:55:00,
2013-03-06 19:00:00,57.5,14.4,30.23,SE,124,2.0,7.0,18,0.00,,---,0.00,0.00,VWS V14.00,2013-03-07 01:00:00,
2013-03-06 19:05:00,57.2,14.1,30.23,SE,124,4.0,7.0,18,0.00,,---,0.00,0.00,VWS V14.00,2013-03-07 01:05:00,
2013-03-06 19:10:00,57.0,15.2,30.23,SE,124,6.0,11.0,19,0.00,,---,0.00,0.00,VWS V14.00,2013-03-07 01:10:00,
2013-03-06 19:15:00,56.8,16.2,30.23,SE,124,2.0,11.0,20,0.00,,---,0.00,0.00,VWS V14.00,2013-03-07 01:15:00,
2013-03-06 19:20:00,56.6,16.0,30.23,SE,124,2.0,11.0,20,0.00,,---,0.00,0.00,VWS V14.00,2013-03-07 01:20:00,
2013-03-06 19:25:00,56.3,15.8,30.23,SE,124,2.0,7.0,20,0.00,,---,0.00,0.00,VWS V14.00,2013-03-07 01:25:00,
2013-03-06 19:30:00,56.0,16.6,30.24,SE,124,0.0,7.0,21,0.00,,---,0.00,0.00,VWS V14.00,2013-03-07 01:30:00,
2013-03-06 19:35:00,55.7,16.4,30.24,SE,124,1.0,4.0,21,0.00,,---,0.00,0.00,VWS V14.00,2013-03-07 01:35:00,
2013-03-06 19:40:00,55.4,16.1,30.25,SE,124,0.0,4.0,21,0.00,,---,0.00,0.00,VWS V14.00,2013-03-07 01:40:00,
2013-03-06 19:45:00,55.2,17.0,30.25,SE,124,0.0,7.0,22,0.00,,---,0.00,0.00,VWS V14.00,2013-03-07 01:45:00,
2013-03-06 19:50:00,54.9,16.8,30.24,SE,124,2.0,7.0,22,0.00,,---,0.00,0.00,VWS V14.00,2013-03-07 01:50:00,
2013-03-06 19:55:00,54.6,16.5,30.24,SE,124,0.0,5.0,22,0.00,,---,0.00,0.00,VWS V14.00,2013-03-07 01:55:00,
2013-03-06 20:00:00,54.3,16.3,30.25,SE,124,2.0,5.0,22,0.00,,---,0.00,0.00,VWS V14.00,2013-03-07 02:00:00,
2013-03-06 20:05:00,54.1,16.1,30.25,SE,124,1.0,6.0,22,0.00,,---,0.00,0.00,VWS V14.00,2013-03-07 02:05:00,
2013-03-06 20:10:00,54.0,16.0,30.25,SE,124,2.0,6.0,22,0.00,,---,0.00,0.00,VWS V14.00,2013-03-07 02:10:00,
2013-03-06 20:15:00,53.8,15.9,30.25,SE,124,4.0,6.0,22,0.00,,---,0.00,0.00,VWS V14.00,2013-03-07 02:15:00,
2013-03-06 20:20:00,53.7,15.8,30.24,SE,124,1.0,6.0,22,0.00,,---,0.00,0.00,VWS V14.00,2013-03-07 02:20:00,
2013-03-06 20:25:00,53.5,15.6,30.25,SE,124,0.0,7.0,22,0.00,,---,0.00,0.00,VWS V14.00,2013-03-07 02:25:00,
2013-03-06 20:30:00,53.4,15.5,30.25,SE,124,2.0,7.0,22,0.00,,---,0.00,0.00,VWS V14.00,2013-03-07 02:30:00,
2013-03-06 20:35:00,53.2,15.4,30.25,SE,124,0.0,5.0,22,0.00,,---,0.00,0.00,VWS V14.00,2013-03-07 02:35:00,
2013-03-06 20:40:00,53.0,15.2,30.26,SE,124,0.0,6.0,22,0.00,,---,0.00,0.00,VWS V14.00,2013-03-07 02:40:00,
2013-03-06 20:45:00,52.8,15.0,30.26,SE,124,2.0,7.0,22,0.00,,---,0.00,0.00,VWS V14.00,2013-03-07 02:45:00,
2013-03-06 20:50:00,52.6,15.9,30.27,SE,124,2.0,7.0,23,0.00,,---,0.00,0.00,VWS V14.00,2013-03-07 02:50:00,
2013-03-06 20:55:00,52.3,15.6,30.27,SE,124,2.0,5.0,23,0.00,,---,0.00,0.00,VWS V14.00,2013-03-07 02:55:00,
2013-03-06 21:00:00,52.1,15.4,30.27,SE,124,4.0,5.0,23,0.00,,---,0.00,0.00,VWS V14.00,2013-03-07 03:00:00,
2013-03-06 21:05:00,51.9,15.3,30.27,SE,124,2.0,5.0,23,0.00,,---,0.00,0.00,VWS V14.00,2013-03-07 03:05:00,
2013-03-06 21:10:00,51.9,15.3,30.28,SE,124,2.0,5.0,23,0.00,,---,0.00,0.00,VWS V14.00,2013-03-07 03:10:00,
2013-03-06 21:15:00,51.9,15.3,30.27,SE,124,2.0,5.0,23,0.00,,---,0.00,0.00,VWS V14.00,2013-03-07 03:15:00,
2013-03-06 21:20:00,51.8,15.2,30.27,SE,124,1.0,5.0,23,0.00,,---,0.00,0.00,VWS V14.00,2013-03-07 03:20:00,
2013-03-06 21:25:00,51.7,16.1,30.27,SE,124,2.0,6.0,24,0.00,,---,0.00,0.00,VWS V14.00,2013-03-07 03:25:00,
2013-03-06 21:30:00,51.6,16.0,30.27,SE,124,1.0,6.0,24,0.00,,---,0.00,0.00,VWS V14.00,2013-03-07 03:30:00,
2013-03-06 21:35:00,51.6,16.0,30.27,SE,124,2.0,5.0,24,0.00,,---,0.00,0.00,VWS V14.00,2013-03-07 03:35:00,
2013-03-06 21:40:00,51.7,16.1,30.27,SE,124,5.0,6.0,24,0.00,,---,0.00,0.00,VWS V14.00,2013-03-07 03:40:00,
2013-03-06 21:45:00,51.7,16.1,30.27,SE,124,0.0,4.0,24,0.00,,---,0.00,0.00,VWS V14.00,2013-03-07 03:45:00,
2013-03-06 21:50:00,51.5,15.9,30.27,SE,124,0.0,6.0,24,0.00,,---,0.00,0.00,VWS V14.00,2013-03-07 03:50:00,
2013-03-06 21:55:00,51.4,15.8,30.27,SE,124,1.0,4.0,24,0.00,,---,0.00,0.00,VWS V14.00,2013-03-07 03:55:00,
2013-03-06 22:00:00,51.2,15.7,30.26,SE,124,4.0,6.0,24,0.00,,---,0.00,0.00,VWS V14.00,2013-03-07 04:00:00,
2013-03-06 22:05:00,51.0,15.5,30.26,SE,124,4.0,5.0,24,0.00,,---,0.00,0.00,VWS V14.00,2013-03-07 04:05:00,
2013-03-06 22:10:00,50.9,16.4,30.26,SE,124,2.0,6.0,25,0.00,,---,0.00,0.00,VWS V14.00,2013-03-07 04:10:00,
2013-03-06 22:15:00,50.9,16.4,30.26,SE,124,2.0,8.0,25,0.00,,---,0.00,0.00,VWS V14.00,2013-03-07 04:15:00,
2013-03-06 22:20:00,50.8,16.3,30.26,SE,124,5.0,8.0,25,0.00,,---,0.00,0.00,VWS V14.00,2013-03-07 04:20:00,
2013-03-06 22:25:00,50.7,16.2,30.25,SE,124,5.0,6.0,25,0.00,,---,0.00,0.00,VWS V14.00,2013-03-07 04:25:00,
2013-03-06 22:30:00,50.6,16.1,30.25,ESE,123,6.0,8.0,25,0.00,,---,0.00,0.00,VWS V14.00,2013-03-07 04:30:00,
2013-03-06 22:35:00,50.5,16.9,30.25,ESE,123,8.0,9.0,26,0.00,,---,0.00,0.00,VWS V14.00,2013-03-07 04:35:00,
2013-03-06 22:40:00,50.4,16.8,30.25,ESE,123,2.0,9.0,26,0.00,,---,0.00,0.00,VWS V14.00,2013-03-07 04:40:00,
2013-03-06 22:45:00,50.4,16.8,30.25,SE,124,0.0,7.0,26,0.00,,---,0.00,0.00,VWS V14.00,2013-03-07 04:45:00,
2013-03-06 22:50:00,50.3,16.7,30.25,SE,124,6.0,8.0,26,0.00,,---,0.00,0.00,VWS V14.00,2013-03-07 04:50:00,
2013-03-06 22:55:00,50.2,16.6,30.25,ESE,123,4.0,9.0,26,0.00,,---,0.00,0.00,VWS V14.00,2013-03-07 04:55:00,
2013-03-06 23:00:00,50.1,16.6,30.25,ESE,123,2.0,9.0,26,0.00,,---,0.00,0.00,VWS V14.00,2013-03-07 05:00:00,
2013-03-06 23:05:00,50.0,17.4,30.25,SE,124,4.0,7.0,27,0.00,,---,0.00,0.00,VWS V14.00,2013-03-07 05:05:00,
2013-03-06 23:10:00,49.9,17.3,30.24,SE,124,5.0,7.0,27,0.00,,---,0.00,0.00,VWS V14.00,2013-03-07 05:10:00,
2013-03-06 23:15:00,49.7,17.1,30.24,SE,124,5.0,9.0,27,0.00,,---,0.00,0.00,VWS V14.00,2013-03-07 05:15:00,
2013-03-06 23:20:00,49.6,17.0,30.24,SE,124,2.0,9.0,27,0.00,,---,0.00,0.00,VWS V14.00,2013-03-07 05:20:00,
2013-03-06 23:25:00,49.4,16.8,30.24,SE,124,2.0,7.0,27,0.00,,---,0.00,0.00,VWS V14.00,2013-03-07 05:25:00,
2013-03-06 23:30:00,49.3,16.8,30.24,SE,124,1.0,7.0,27,0.00,,---,0.00,0.00,VWS V14.00,2013-03-07 05:30:00,
2013-03-06 23:35:00,49.0,17.3,30.23,SE,124,0.0,4.0,28,0.00,,---,0.00,0.00,VWS V14.00,2013-03-07 05:35:00,
2013-03-06 23:40:00,48.8,17.2,30.23,SE,124,2.0,7.0,28,0.00,,---,0.00,0.00,VWS V14.00,2013-03-07 05:40:00,
2013-03-06 23:45:00,48.7,17.1,30.23,SE,124,2.0,6.0,28,0.00,,---,0.00,0.00,VWS V14.00,2013-03-07 05:45:00,
2013-03-06 23:50:00,48.6,17.8,30.22,SE,124,4.0,7.0,29,0.00,,---,0.00,0.00,VWS V14.00,2013-03-07 05:50:00,
2013-03-06 23:55:00,48.6,17.8,30.21,SE,124,4.0,7.0,29,0.00,,---,0.00,0.00,VWS V14.00,2013-03-07 05:55:00,